Location: Bats
(43.6587°N, 0.4584°W)
Time: 05:52:16
(UTC+00:00)

NOSS 3-4 (A) - Pass Details

Date: 12 January 2026
Orbit: 769 x 1442 km, 63.4° (Epoch: 10 January)

Event Time Altitude Azimuth Distance (km) Brightness Sun altitude
Rises 19:20:10 0° 235° (SW) 3,232 7.1 -27.1°
Reaches altitude 10° 19:22:35 10° 242° (WSW) 2,325 6.3 -27.5°
Maximum altitude 19:27:38 45° 315° (NW) 1,097 3.9 -28.4°
Enters shadow 19:28:55 39° 351° (N) 1,235 4.0 -28.7°
